Location: Fond Mahaut
(18.0707°N, 63.0465°W)
Time: 01:48:21
(UTC+00:00)

Okean 1-7 - Pass Details

Date: 08 December 2019
Orbit: 591 x 619 km, 82.5° (Epoch: 19 January)

Event Time Altitude Azimuth Distance (km) Brightness Sun altitude
Rises 21:54:55 0° 171° (S) 2,826 6.6 -4.9°
Reaches altitude 10° 21:57:10 10° 165° (SSE) 1,930 5.7 -5.4°
Maximum altitude 22:01:14 45° 93° (E) 824 3.3 -6.2°
Drops below altitude 10° 22:05:21 10° 20° (NNE) 1,951 5.2 -7.2°
Sets 22:07:39 0° 14° (NNE) 2,861 6.1 -7.7°
